Weather in Shahrihan

Uzbekistan     40˚42′41″N   72˚03′03″E
temp.,
°C
wind,
m/s
gust,
m/s
humid.,
%
clouds,
%
prec.,
mm/h
press.,
hPa
HPBL,
m
1 december, tue
tue123:00+2˚ene1260100 0.0 102825
02:00+1˚ene1260100 0.0 102725
05:00+1˚ne1260100 0.0 102722
08:00+2˚ne1158100 0.1 102728
11:00+5˚se114694 0.1 1026247
14:00+6˚ene0147100 0.1 1026287
17:00+5˚ese2360100 0.2 102889
20:00+4˚ene1269100 0.2 1030102
2 december, wed
wed223:00+4˚ne2268100 0.3 103065
02:00+4˚nne1262100 0.0 103028
05:00+4˚nnw0157100 0.0 103022
08:00+4˚ne1152100 0.0 103031
11:00+7˚n1145100 0.0 1028240
14:00+9˚se114484 0.0 1026380
17:00+8˚n115692 0.0 102622
20:00+7˚ene1160100 0.0 102722
3 december, thu
thu323:00+7˚ne2270100 0.1 102733
02:00+6˚ene1176100 0.1 102731
05:00+6˚ne2379100 0.1 102893
08:00+6˚ne2484100 0.0 1028128
11:00+7˚ne1279100 0.0 1027174
14:00+9˚ne1270100 0.0 1025391
17:00+8˚e0077100 0.0 102522
20:00+8˚nne1185100 0.5 102538
4 december, fri
fri423:00+7˚nnw1193100 2.0 102491
02:00+7˚wnw1296100 1.7 1022147
05:00+7˚wsw2497100 3.4 1021235
08:00+7˚wsw2796100 1.7 1022517
11:00+8˚wsw4984100 3.2 1022793
14:00+9˚wsw2567100 0.2 1023895
17:00+7˚ene1281100 0.3 1025141
20:00+7˚n2375100 0.1 1028200
5 december, sat
sat523:00+5˚nnw2468100 0.1 1029283
02:00+5˚ssw1568100 0.0 1029354
05:00+4˚ssw2569100 0.0 1029175
08:00+4˚s237196 0.0 102999
11:00+7˚ssw235883 0.0 1027718
14:00+8˚ssw225458 0.0 10251067
17:00+6˚nne016370 0.0 102755
20:00+5˚ne126971 0.0 102825